Weather History for Spirit of St Louis, MO

Change the Weather History Date:

Tuesday, July 30, 2013

  Actual Average Record
Temperature  
Mean Temperature 70 °F -  
Max Temperature 78 °F 86 °F 102 °F (1999)
Min Temperature 64 °F 64 °F 57 °F (2003)
Cooling Degree Days 4    
Growing Degree Days 20 (Base 50)    
Moisture  
Dew Point 67 °F    
Average Humidity 89    
Maximum Humidity 97    
Minimum Humidity 73    
Precipitation  
Precipitation 0.52 in - - ()
Sea Level Pressure  
Sea Level Pressure 30.04 in    
Wind  
Wind Speed 5 mph (ESE)    
Max Wind Speed 9 mph    
Max Gust Speed -    
Visibility 7 miles    
Events Rain    
Averages and records for this station are not official NWS values.
T = Trace of Precipitation, MM = Missing Value Source: NWS Daily Summary

Daily Weather History Graph

Daily Weather History Graph

Search for Another Location

Airport:

Trip Planner

Search our weather history database for the weather conditions in past years. The results will help you decide how hot, cold, wet, or windy it might be!

Date:

Astronomy

Jul. 30, 2013 Rise Set
Actual Time 6:02 AM CDT 8:14 PM CDT
Civil Twilight 5:32 AM CDT 8:44 PM CDT
Nautical Twilight 4:56 AM CDT 9:20 PM CDT
Astronomical Twilight 4:16 AM CDT 10:00 PM CDT
Moon 12:20 AM CDT (7/30) 2:35 PM CDT (7/30)
Length of Visible Light 15h 11m
Length of Day
14h 12m
Last Quarter, 41% of the Moon is Illuminated
Jul 30
Last Quarter
Aug 6
New
Aug 14
First Quarter
Aug 20
Full
Aug 28
Last Quarter

Hourly Weather History & Observations

Time (CDT) Temp. Dew Point Humidity Pressure Visibility Wind Dir Wind Speed Gust Speed Precip Events Conditions
12:54 AM 70.0 °F 62.1 °F 76% 30.09 in 10.0 mi East 5.8 mph - N/A   Scattered Clouds
1:54 AM 70.0 °F 61.0 °F 73% 30.08 in 10.0 mi ESE 9.2 mph - N/A   Mostly Cloudy
2:54 AM 70.0 °F 61.0 °F 73% 30.07 in 10.0 mi ESE 4.6 mph - 0.00 in Rain Light Rain
3:54 AM 66.9 °F 62.1 °F 84% 30.05 in 6.0 mi East 6.9 mph - 0.03 in Rain Rain
4:08 AM 66.2 °F 62.6 °F 88% 30.08 in 1.8 mi Variable 3.5 mph - 0.12 in Rain Heavy Rain
4:12 AM 66.2 °F 62.6 °F 88% 30.07 in 0.8 mi Variable 3.5 mph - 0.25 in Rain Heavy Rain
4:23 AM 64.4 °F 62.6 °F 94% 30.08 in 2.0 mi Calm Calm - 0.33 in Rain Light Rain
4:26 AM 66.2 °F 62.6 °F 88% 30.08 in 4.0 mi Calm Calm - 0.33 in Rain Light Rain
4:54 AM 64.9 °F 63.0 °F 93% 30.06 in 7.0 mi East 5.8 mph - 0.35 in Rain Light Rain
5:36 AM 66.2 °F 64.4 °F 94% 30.08 in 10.0 mi East 6.9 mph - 0.01 in Rain Light Rain
5:54 AM 66.0 °F 64.0 °F 93% 30.07 in 9.0 mi East 3.5 mph - 0.01 in Rain Light Rain
6:54 AM 66.0 °F 64.0 °F 93% 30.07 in 10.0 mi East 5.8 mph - 0.00 in   Mostly Cloudy
7:16 AM 66.2 °F 64.4 °F 94% 30.09 in 8.0 mi East 5.8 mph - N/A   Mostly Cloudy
7:54 AM 66.9 °F 64.0 °F 90% 30.07 in 10.0 mi East 4.6 mph - N/A   Overcast
8:54 AM 68.0 °F 64.9 °F 90% 30.07 in 10.0 mi ESE 4.6 mph - N/A   Overcast
9:20 AM 69.8 °F 66.2 °F 88% 30.08 in 10.0 mi ESE 4.6 mph - 0.00 in   Scattered Clouds
9:54 AM 70.0 °F 66.0 °F 87% 30.06 in 10.0 mi ESE 5.8 mph - 0.00 in   Mostly Cloudy
10:33 AM 69.8 °F 66.2 °F 88% 30.07 in 10.0 mi ESE 8.1 mph - 0.00 in   Overcast
10:43 AM 71.6 °F 66.2 °F 83% 30.07 in 10.0 mi SSE 4.6 mph - 0.00 in   Overcast
10:54 AM 71.1 °F 66.0 °F 84% 30.05 in 10.0 mi SE 8.1 mph - 0.00 in   Overcast
11:23 AM 69.8 °F 66.2 °F 88% 30.07 in 1.8 mi SE 4.6 mph - 0.05 in Rain Heavy Rain
11:42 AM 69.8 °F 68.0 °F 94% 30.06 in 3.0 mi SE 3.5 mph - 0.10 in Rain Rain
11:54 AM 71.1 °F 68.0 °F 90% 30.05 in 8.0 mi Variable 3.5 mph - 0.11 in Rain Light Rain
12:08 PM 71.6 °F 68.0 °F 88% 30.06 in 10.0 mi SE 4.6 mph - 0.00 in   Overcast
12:54 PM 73.0 °F 68.0 °F 84% 30.03 in 10.0 mi South 6.9 mph - 0.00 in   Overcast
1:54 PM 73.9 °F 69.1 °F 85% 30.01 in 10.0 mi ESE 5.8 mph - N/A   Overcast
2:49 PM 75.2 °F 69.8 °F 83% 30.02 in 10.0 mi SE 3.5 mph - N/A   Overcast
2:54 PM 75.9 °F 69.1 °F 79% 30.00 in 10.0 mi Variable 4.6 mph - N/A   Overcast
3:54 PM 75.9 °F 70.0 °F 82% 29.99 in 10.0 mi SE 5.8 mph - N/A   Overcast
4:54 PM 73.9 °F 70.0 °F 87% 29.99 in 9.0 mi ESE 4.6 mph - N/A   Overcast
5:52 PM 73.4 °F 71.6 °F 94% 30.00 in 2.5 mi East 4.6 mph - 0.01 in Rain Light Rain
5:54 PM 73.0 °F 71.1 °F 93% 29.99 in 2.5 mi East 4.6 mph - 0.01 in Rain Light Rain
6:05 PM 73.4 °F 71.6 °F 94% 30.00 in 2.5 mi ESE 3.5 mph - 0.00 in   Overcast
6:54 PM 73.0 °F 71.1 °F 93% 29.98 in 2.5 mi East 4.6 mph - 0.00 in Rain Light Rain
7:14 PM 73.4 °F 71.6 °F 94% 30.00 in 2.5 mi ENE 5.8 mph - 0.00 in   Overcast
7:54 PM 73.0 °F 71.1 °F 93% 29.99 in 2.5 mi East 4.6 mph - 0.00 in   Overcast
8:54 PM 72.0 °F 71.1 °F 97% 29.99 in 3.0 mi ENE 4.6 mph - 0.01 in   Overcast
9:54 PM 72.0 °F 71.1 °F 97% 30.00 in 8.0 mi Calm Calm - N/A   Overcast
10:54 PM 72.0 °F 70.0 °F 93% 30.01 in 4.0 mi East 3.5 mph - N/A   Overcast
11:54 PM 72.0 °F 71.1 °F 97% 30.01 in 6.0 mi Calm Calm - N/A   Overcast